sat.trackr.live / text

‹ back to catalog

STARLINK-2629

NORAD 48686 · 2021-044BA

PAYLOAD ACTIVE UNKNOWN

§ Identity

Operator
Country
US
Launch date
2021-05-26
Launch site
AFETR
Launch vehicle
Mass (kg)
RCS (m²)

Purposes: comms

External: N2YO · Heavens-Above · Gunter

§ Orbital elements

Epoch: 2026-05-25T04:33:34.288416Z

Period
94.01 min
Inclination
53.1599°
Eccentricity
0.0001156
Mean motion
15.31698073 rev/d
Perigee alt
470.0 km
Apogee alt
471.5 km
Semi-major
6,848.9 km
B*
5.6798e-6
RAAN
79.5626°
Arg perigee
84.6346°
Mean anomaly
275.4788°
Rev number
27,607

§ Raw data

STARLINK-26291 48686U 21044BA  26145.18998019 -.00000189  00000+0  56798-5 0  99942 48686  53.1599  79.5626 0001156  84.6346 275.4788 15.31698073276071

JSON: /api/v1/satellites/48686 · /tle

For live sub-satellite position, see the globe view (requires WebGL).

§ Visibility from observer

Set your observer location to see the next 7 days of passes ≥ 10°. The values pass through the URL so the page stays shareable.

No JS? Fill the form by hand. The geolocation button needs JavaScript.